Regional Weather Roundup
Issued by NWS New Orleans/Baton Rouge, LA

Home | Current Version | Previous Version | Graphics & Text | Print | Product List | Glossary On
Versions: 1 2 3 4 5 6 7 8 9 10 11 12 13 14 15 16 17 18 19 20 21 22 23 24 25 26 27 28 29 30 31 32 33 34 35 36 37 38 39 40 41 42 43 44 45 46 47 48 49 50
790
ASUS44 KLIX 180701
RWRLIX
NEW ORLEANS REGIONAL WEATHER ROUNDUP
NATIONAL WEATHER SERVICE NEW ORLEANS LA
200 AM CDT FRI APR 18 2014

NOTE: "FAIR" INDICATES FEW OR NO CLOUDS BELOW 12,000 FEET WITH NO
      SIGNIFICANT WEATHER AND/OR OBSTRUCTIONS TO VISIBILITY.
      SKY/WX - SKY CONDITION AND SIGNIFICANT WEATHER.
      TMP - AIR TEMPERATURE.     DP    - DEWPOINT TEMPERATURE.
      RH  - RELATIVE HUMIDITY.   PRES  - PRESSURE.
      HI  - HEAT INDEX.          WCI   - WIND CHILL INDEX.

*  THESE STATIONS ARE NOT NWS OR FAA STATIONS AND ARE NOT UNDER
   NWS QUALITY CONTROL.

LAZ038-040-048-061>063-065>067-069-180800-
SOUTHEAST LOUISIANA

CITY           SKY/WX    TMP DP  RH WIND       PRES   REMARKS
N.O. AUDUBON     N/A     64 N/A N/A MISG        N/A
N.O. INTL ARPT CLOUDY    64  59  83 E14       30.08F
N.O. LAKEFRONT CLOUDY    63  60  90 E17       30.08F
N.O. DOWNTOWN* CLOUDY    63  55  77 NE7       30.09F
SLIDELL        CLOUDY    62  58  86 E8        30.08F
BATON ROUGE    CLOUDY    62  56  80 N3        30.12F
BOOTHVILLE     CLOUDY    63  61  93 NE9       30.05F
BELLE CHASSE   CLOUDY    63  58  83 NE12      30.07F
BOGALUSA*        N/A     64  57  79 E10G17    30.11F
GALLIANO*      NOT AVBL
NEW ROADS*     NOT AVBL
GONZALES*      CLOUDY    62  60  93 N3        30.10F
HAMMOND*       NOT AVBL
HOUMA*         NOT AVBL
PORT FOURCHON* PTSUNNY   64  61  88 NE13G21   30.06F

$$

MSZ070-080>082-180800-
SOUTHERN MISSISSIPPI

CITY           SKY/WX    TMP DP  RH WIND       PRES   REMARKS
MCCOMB         CLOUDY    59  53  80 N5        30.14S
GULFPORT       CLOUDY    63  59  87 NE8       30.09F
BILOXI         LGT RAIN  61  61 100 E10       30.10F
PASCAGOULA     LGT RAIN  61  59  93 N6        30.12F

$$

COASTAL OBSERVATIONS
LAKE AND NEARSHORE STATIONS

STATION/POSITION TIME  TEMP    WIND        PRES    WAVE
                       AIR SEA DIR/SP/G            HT/PER
                 (UTC) (F)     (DEG/KT/KT) (MB)    (FT/S)
PASCAGOULA       0600   61      40/ 13/ 17 1019.0
WAVELAND YACHT   0600   61 66   70/ 13/ 15 1018.5
GRAND ISLE       0600   64 66   60/ 15/ 19 1018.4
SOUTHWEST PASS   0600   66 58   40/ 11/ 15 1017.3
NEW CANAL        0600   63 63   80/ 13/ 16 1019.2
SHELL BEACH      0600   63 61   60/ 19/ 22 1018.2

OFFSHORE STATIONS

STATION/POSITION TIME  TEMP    WIND        PRES    WAVE
                       AIR SEA DIR/SP/G            HT/PER
                 (UTC) (F)     (DEG/KT/KT) (MB)    (FT/S)
64 S DAUPHIN ISL 0637   66 71   50/ 25/ 31 1016.5

$$




USA.gov is the U.S. government's official web portal to all federal, state and local government web resources and services.